Regional Weather Roundup
Issued by NWS

Home | Current Version | Previous Version | Text Only | Print | Product List | Glossary Off
Versions: 1 2 3 4 5 6 7 8 9 10 11 12 13 14 15 16 17 18 19 20 21 22 23 24 25 26 27 28 29 30 31 32 33 34 35 36 37 38 39 40 41 42 43 44 45 46 47 48 49 50

000
ASUS43 KOAX 230810
RWRNE

WEATHER ROUNDUP FOR NEBRASKA
NATIONAL WEATHER SERVICE OMAHA NE
300 AM CDT SAT SEP 23 2017

NOTES: SATELLITE DATA IS BEING USED TO AUGMENT CLOUD COVER ABOVE
       12000 FEET.
       "FAIR" INDICATES FEW OR NO CLOUDS BELOW 12,000 FEET WITH NO
       SIGNIFICANT WEATHER AND/OR OBSTRUCTIONS TO VISIBILITY.


NEZ001>004-019>022-054>056-230900-
NEBRASKA PANHANDLE

CITY           SKY/WX    TMP DP  RH WIND       PRES   REMARKS
SCOTTSBLUFF    CLOUDY    48  38  68 NE7       29.99R
ALLIANCE       PTCLDY    46  37  71 NE15      29.96F
CHADRON        CLOUDY    46  38  73 N8        30.02R
GORDON         CLOUDY    45  41  85 NE9       29.98F
KIMBALL        CLOUDY    48  41  77 NE8       29.98R
SIDNEY         CLOUDY    48  41  76 NE14      29.94F
$$

NEZ057>060-069>072-079>082-230900-
SOUTHWEST NEBRASKA

CITY           SKY/WX    TMP DP  RH WIND       PRES   REMARKS
NORTH PLATTE   PTCLDY    55  49  80 NE12G28   29.88F
IMPERIAL       CLOUDY    58  47  66 N16       29.87R
LEXINGTON      CLEAR     73  63  69 N9        29.86R
MCCOOK         CLEAR     76  65  68 S17G26    29.80R
OGALLALA       CLOUDY    52  49  89 NE6       29.93R
$$

NEZ005>010-023>029-035>040-094-230900-
NORTH CENTRAL NEBRASKA

CITY           SKY/WX    TMP DP  RH WIND       PRES   REMARKS
VALENTINE      CLOUDY    50  46  86 N8        29.95F THUNDER
AINSWORTH      CLOUDY    50  47  90 N14G20    29.93F
BROKEN BOW     PTCLDY    57  51  80 N18G24    29.90R
O`NEILL        MOCLDY    56  55  97 NW10      29.95R
ORD            PTCLDY    59  53  80 NW14      29.90R
THEDFORD       TSTM      51  48  90 N9        29.95R
$$

NEZ041-046>049-061>064-073>077-083>087-230900-
SOUTH CENTRAL NEBRASKA

CITY           SKY/WX    TMP DP  RH WIND       PRES   REMARKS
GRAND ISLAND   PTCLDY    74  67  78 S15       29.85R
AURORA         CLEAR     74  68  81 S15       29.86S
HASTINGS       PTCLDY    76  65  68 S14       29.87R
HEBRON         CLEAR     75  67  77 S8        29.89S
HOLDREGE       PTCLDY    74  62  66 S15G21    29.84F
KEARNEY        PTCLDY    75  65  70 S16       29.85R
YORK           PTCLDY    73  68  83 S13       29.88R
$$

NEZ011>018-030>034-042>045-230900-
NORTHEAST NEBRASKA

CITY           SKY/WX    TMP DP  RH WIND       PRES   REMARKS
NORFOLK        MOCLDY    71  66  84 CALM      29.88R
ALBION         MOCLDY    67  62  85 N5        29.89R
BLAIR          CLEAR     76  67  76 S12G17    29.90R
COLUMBUS       CLEAR     75  67  76 S8        29.88R
FREMONT        PTCLDY    74  66  76 SE7       29.89S
TEKAMAH        CLEAR     73  67  81 S7        29.87R
WAYNE          PTCLDY    68  65  91 CALM      29.88R
$$

NEZ050>053-065>068-078-088>093-230900-
SOUTHEAST NEBRASKA

CITY           SKY/WX    TMP DP  RH WIND       PRES   REMARKS
LINCOLN        CLEAR     75  67  76 S12       29.89R
OMAHA EPPLEY   PTCLDY    76  67  73 S9        29.89R
BEATRICE       CLEAR     75  67  77 S12       29.90S
FALLS CITY     CLEAR     72  67  84 SE8       29.92S
NEBRASKA CITY  CLEAR     73  70  90 S12       29.91R
PLATTSMOUTH    CLEAR     73  69  85 S10       29.90R
$$

NEZ044-045-051>053-067-230900-
OMAHA AREA

CITY           SKY/WX    TMP DP  RH WIND       PRES   REMARKS
OMAHA EPPLEY   PTCLDY    76  67  73 S9        29.89R
BLAIR          CLEAR     76  67  76 S12G17    29.90R
FREMONT        PTCLDY    74  66  76 SE7       29.89S
MILLARD        CLEAR     76  69  78 SE7       29.90R
OFFUTT AFB     CLEAR     74  67  79 SE6       29.89R
PLATTSMOUTH    CLEAR     73  69  85 S10       29.90R
WAHOO          FAIR      70  67  89 SE7       29.88S
$$



USA.gov is the U.S. government's official web portal to all federal, state and local government web resources and services.